Location: Rounton
(54.4000°N, 1.3500°W)
Time: 14:38:12
(UTC+01:00)

S-56A Canister/Altair - Pass Details

Date: 14 September 2024
Orbit: 636 x 2487 km, 38.9° (Epoch: 02 October)

Event Time Altitude Azimuth Distance (km) Brightness Sun altitude
Rises 23:03:24 0° 252° (WSW) 3,889 11.3 -27.7°
Reaches altitude 10° 23:06:12 10° 241° (WSW) 3,169 10.7 -27.9°
Enters shadow 23:10:15 24° 211° (SSW) 2,568 9.9 -28.3°
Maximum altitude 23:12:47 28° 186° (S) 2,585 - -28.5°
Drops below altitude 10° 23:21:41 10° 134° (SE) 4,376 - -29.1°
Sets 23:26:23 0° 125° (SE) 5,656 - -29.4°
